Location: Newark
(52.3735°N, 16.9806°E)
Time: 20:53:16
(UTC+00:00)

Envisat - Pass Details

Date: 21 September 2021
Orbit: 764 x 766 km, 98.2° (Epoch: 15 October)

Event Time Altitude Azimuth Distance (km) Brightness Sun altitude
Rises 03:04:00 0° 23° (NNE) 3,245 6.9 -14.6°
Reaches altitude 10° 03:06:47 10° 38° (NE) 2,313 6.4 -14.2°
Maximum altitude 03:10:50 24° 91° (E) 1,567 5.5 -13.6°
Drops below altitude 10° 03:14:52 10° 144° (SE) 2,298 5.7 -13.0°
Sets 03:17:36 0° 158° (SSE) 3,219 6.3 -12.6°
